Flag for Ecuador Weather past 2 weeks in Guayaquil, Ecuador

Now
75 °F

Passing clouds.


Feels Like: 77 °F
Forecast: 71 / 90 °F
Wind: 6 mph from Southwest

Location: Guayaquil / Simon Bolivar

Current Time: Dec 18, 2014 at 4:55:16 AM

Latest Report: Dec 18, 2014 at 4:00 AM


Visibility: N/A

Pressure: 29.89 "Hg

Humidity: 74%

Dew point: 66 °F

Location of GuayaquilLocation

Historic Weather in Guayaquil — Graph

°F

Guayaquil temperature yesterday

Maximum temperature yesterday: 91 °F (at 3:00 PM)
Minimum temperature yesterday: 73 °F (at 4:00 AM)
Average temperature yesterday: 82 °F

Past Weeks' High & Low Weather Summary

 TemperatureHumidityPressure
High93 °F (Dec 6, 3:00 PM)83% (Dec 15, 2:00 AM)29.95 "Hg (Dec 15, 2:00 AM)
Low50 °F (Dec 7, 11:00 AM)41% (Dec 6, 3:00 PM)29.68 "Hg (Dec 3, 4:00 PM)
Average81 °F62%29.84 "Hg
* Reported Dec 3 4:00 AM — Dec 18 4:00 AM, Guayaquil, Weather by CustomWeather, © 2014

Note: Actual official high and low records may vary slightly from our data, if they occured in-between our weather recording intervals... More about our weather records

Advertising

Guayaquil weather history for previous 24 hours

 ConditionsComfort  
Time TempWeatherWind HumidityBarometerVisibility
4:00 AM
Dec 18
75 °FPassing clouds.6 mph74%29.89 "HgN/A
3:00 AM75 °FPassing clouds.7 mph74%29.89 "HgN/A
2:00 AM75 °FPartly cloudy.7 mph78%29.92 "HgN/A
1:00 AM75 °FPartly cloudy.9 mph78%29.92 "HgN/A
12:00 AM77 °FPartly cloudy.8 mph69%29.92 "HgN/A
11:00 PM
Dec 17
77 °FPassing clouds.15 mph69%29.95 "HgN/A
10:00 PM77 °FPassing clouds.10 mph69%29.95 "HgN/A
9:00 PM79 °FClear.17 mph65%29.92 "Hg10 mi
8:00 PM82 °FClear.12 mph55%29.89 "Hg10 mi
7:00 PM86 °FPassing clouds.14 mph52%29.86 "HgN/A
6:00 PM88 °FPartly sunny.10 mph46%29.83 "HgN/A
5:00 PM90 °FScattered clouds.12 mph46%29.80 "HgN/A
4:00 PM91 °FScattered clouds.6 mph44%29.80 "HgN/A
3:00 PM91 °FPartly sunny.6 mph44%29.80 "HgN/A
2:00 PM90 °FPartly sunny.6 mph46%29.83 "HgN/A
1:00 PM90 °FPartly sunny.9 mph46%29.86 "HgN/A
12:00 PM88 °FPartly sunny.8 mph49%29.89 "HgN/A
11:00 AM88 °FPartly sunny.6 mph52%29.92 "HgN/A
10:00 AM84 °FPartly sunny.5 mph58%29.95 "HgN/A
9:00 AM81 °FPartly sunny.3 mph66%29.95 "HgN/A
8:00 AM79 °FSunny.1 mph65%29.95 "Hg10 mi
7:00 AM75 °FSunny.2 mph74%29.92 "Hg10 mi
6:00 AM75 °FClear.2 mph74%29.92 "Hg10 mi
5:00 AM73 °FPassing clouds.2 mph78%29.89 "HgN/A
4:00 AM73 °FPassing clouds.2 mph78%29.89 "HgN/A
Weather by CustomWeather, © 2014

See weather overviewHow to use our weather pages